This demonstration page uses our WeatherBlox Daily Observations layout. Learn more.

Left ArrowRight Arrow

Hourly Observations for June 14, 2015

Temp ( °F °C ) Dew Point ( °F °C ) Humidity (%) Winds ( mph kmh ) Pressure ( in mb ) Visibility ( mi km ) Precip ( " mm )
12:54 am 00:54 Clear 67 19.4 66 18.9 97 97 S 5 7 29.86 1011 10 16.0934 N/A
1:54 am 01:54 Clear 68 20 66 18.9 93 93 S 3 6 29.85 1011 10 16.0934 N/A
2:54 am 02:54 Clear 67 19.4 66 18.9 97 97 N N/A 29.85 1011 9 14.48406 N/A
3:54 am 03:54 Clear 68 20 66 18.9 93 93 N N/A 29.83 1010 10 16.0934 N/A
4:54 am 04:54 Clear 63 17.2 62 16.7 97 97 N N/A 29.84 1010 9 14.48406 N/A
5:54 am 05:54 Clear 64 17.8 63 17.2 96 96 N N/A 29.83 1010 7 11.26538 N/A
6:54 am 06:54 Partly Cloudy with Mist and Fog 66 18.9 65 18.3 96 96 N N/A 29.85 1011 6 9.65604 N/A
7:50 am 07:50 Mostly Sunny 70 21 68 20 94 94 SSE 5 7 29.85 1011 8 12.87472 N/A
7:54 am 07:54 Mostly Sunny 70 21.1 68 20 93 93 S 6 9 29.85 1011 8 12.87472 N/A
8:54 am 08:54 Sunny 74 23.3 69 20.6 85 85 S 6 9 29.86 1011 10 16.0934 N/A
9:54 am 09:54 Partly Cloudy 75 23.9 70 21.1 84 84 SSE 7 11 29.87 1011 10 16.0934 N/A
10:09 am 10:09 Mostly Cloudy 76 24.4 70 21.1 82 82 S 7 11 29.85 1011 10 16.0934 N/A
10:54 am 10:54 Partly Cloudy 78 25.6 71 21.7 79 79 S 6 9 29.87 1012 10 16.0934 N/A
11:05 am 11:05 Mostly Cloudy 79 26.1 71 21.7 77 77 S 7 11 29.85 1011 10 16.0934 N/A
11:34 am 11:34 Mostly Cloudy 79 26.1 70 21.1 74 74 SSW 8 13 29.85 1011 10 16.0934 N/A
11:54 am 11:54 Mostly Cloudy 79 26.1 70 21.1 74 74 SSE 6 9 29.88 1012 10 16.0934 N/A
12:54 pm 12:54 Mostly Cloudy 81 27.2 70 21.1 69 69 SE 9 15 29.88 1012 10 16.0934 N/A
1:54 pm 13:54 Mostly Cloudy 81 27.2 69 20.6 67 67 S 9 15 29.87 1012 10 16.0934 N/A
2:54 pm 14:54 Mostly Sunny 80 26.7 69 20.6 69 69 SSE 6 9 29.85 1011 10 16.0934 N/A
3:54 pm 15:54 Sunny 84 28.9 71 21.7 65 65 N N/A 29.83 1010 10 16.0934 N/A
4:54 pm 16:54 Mostly Sunny 81 27.2 68 20 65 65 ESE 7 11 29.81 1010 10 16.0934 N/A
5:54 pm 17:54 Sunny 81 27.2 71 21.7 72 72 ESE 6 9 29.81 1009 10 16.0934 N/A
6:54 pm 18:54 Mostly Cloudy 81 27.2 71 21.7 72 72 E 9 15 29.81 1010 10 16.0934 N/A
7:07 pm 19:07 Cloudy with Thunderstorms 75 23.9 68 20 79 79 WSW 10 17 29.77 1008 2.5 4.02335 0.05 1.27
7:16 pm 19:16 Mostly Cloudy with Light Thunderstorms 76 24.4 71 21.7 85 85 WSW 9 15 29.77 1008 4 6.43736 0.06 1.524
7:22 pm 19:22 Cloudy with Heavy Thunderstorms 79 26 72 22 79 79 WNW 9 15 29.77 1008 2.5 4.02335 N/A
7:54 pm 19:54 Windy with Storms Likely 72 22.2 64 17.8 76 76 NNW 24 39 29.83 1010 2.5 4.02335 0.18 4.572
8:01 pm 20:01 Cloudy with Light Thunderstorms 72 22 64 18 78 78 NW 17 28 29.8 1009 9 14.48406 N/A
8:29 pm 20:29 Cloudy with Light Thunderstorms 71 21.7 65 18.3 81 81 NW 15 24 29.8 1009 10 16.0934 0.01 0.254
8:54 pm 20:54 Cloudy with Light Thunderstorms 72 22.2 64 17.8 76 76 W 12 19 29.85 1011 10 16.0934 0.01 0.254
9:16 pm 21:16 Cloudy with Thunderstorms 68 20 66 18.9 93 93 S 15 24 29.85 1011 2.5 4.02335 0.07 1.778
9:45 pm 21:45 Cloudy with Nearby Thunderstorms 69 20.6 66 18.9 90 90 W 10 17 29.88 1012 7 11.26538 0.19 4.826
9:54 pm 21:54 Cloudy with Light Thunderstorms 69 20.6 65 18.3 87 87 W 10 17 29.88 1012 10 16.0934 0.19 4.826
10:14 pm 22:14 Mostly Cloudy with Light Rain 68 20 65 18.3 90 90 N N/A 29.88 1012 7 11.26538 0.02 0.508
10:54 pm 22:54 Cloudy with Light Rain 68 20 66 18.9 93 93 SE 8 13 29.88 1012 10 16.0934 0.02 0.508
11:54 pm 23:54 Partly Cloudy 69 20.6 67 19.4 93 93 ENE 6 9 29.88 1012 10 16.0934 0.03 0.762

Powered by AerisWeather